This is the latest recevied weather packets stored in our database for station/object DL3TR-13. If no packets are shown the sender has not sent any weather packets the latest 1 day(s).
| Time | Temp. | Humidity | Pressure | Rain* | Wind** | Luminosity | Snow |
|---|---|---|---|---|---|---|---|
| 1777972991 | 16.11° C | 71% | 1006.5 hPa | 0 mm | 1.34 m/s, 227° | 308 W/m² | - |
| 1777972391 | 16.67° C | 71% | 1006.6 hPa | 0 mm | 0.89 m/s, 259° | 287 W/m² | - |
| 1777971791 | 16.11° C | 73% | 1006.6 hPa | 0 mm | 0.89 m/s, 221° | 325 W/m² | - |
| 1777971191 | 16.11° C | 72% | 1006.6 hPa | 0 mm | 0.89 m/s, 200° | 258 W/m² | - |
| 1777970591 | 16.11° C | 68% | 1006.6 hPa | 0 mm | 0 m/s | 306 W/m² | - |
| 1777969991 | 15.56° C | 70% | 1006.6 hPa | 0 mm | 0 m/s | 323 W/m² | - |
| 1777969391 | 15.56° C | 71% | 1006.7 hPa | 0 mm | 0 m/s | 257 W/m² | - |
| 1777968791 | 15.56° C | 70% | 1006.7 hPa | 0 mm | 0 m/s | 397 W/m² | - |
| 1777968192 | 15.56° C | 70% | 1006.9 hPa | 0 mm | 0 m/s | 466 W/m² | - |
| 1777967591 | 14.44° C | 71% | 1006.9 hPa | 0 mm | 0 m/s | 404 W/m² | - |
| 1777966991 | 14.44° C | 77% | 1007.1 hPa | 0 mm | 0.45 m/s, 331° | 369 W/m² | - |
| 1777966391 | 13.89° C | 77% | 1007.1 hPa | 0 mm | 0 m/s | 202 W/m² | - |
| 1777965791 | 13.89° C | 76% | 1007.1 hPa | 0 mm | 0.45 m/s, 338° | 253 W/m² | - |
| 1777965191 | 13.33° C | 76% | 1007.2 hPa | 0 mm | 0 m/s | 227 W/m² | - |
| 1777964591 | 13.89° C | 78% | 1007.3 hPa | 0 mm | 0 m/s | 522 W/m² | - |
| 1777963991 | 12.78° C | 80% | 1007.5 hPa | 0 mm | 0 m/s | 336 W/m² | - |
| 1777963391 | 12.78° C | 79% | 1007.5 hPa | 0 mm | 0 m/s | 176 W/m² | - |
| 1777962792 | 12.22° C | 79% | 1007.6 hPa | 0 mm | 0 m/s | 350 W/m² | - |
| 1777962191 | 11.67° C | 82% | 1007.6 hPa | 0 mm | 0.45 m/s, 87° | 320 W/m² | - |
| 1777961591 | 10.56° C | 83% | 1007.7 hPa | 0 mm | 0 m/s | 262 W/m² | - |
| 1777960991 | 9.44° C | 86% | 1007.7 hPa | 0 mm | 0 m/s | 264 W/m² | - |
| 1777960391 | 8.33° C | 87% | 1007.8 hPa | 0 mm | 0.45 m/s, 89° | 102 W/m² | - |
| 1777959791 | 8.33° C | 88% | 1007.8 hPa | 0 mm | 0.89 m/s, 51° | 155 W/m² | - |
| 1777959191 | 7.22° C | 88% | 1007.9 hPa | 0 mm | 0.45 m/s, 51° | 49 W/m² | - |
| 1777958591 | 7.22° C | 88% | 1007.8 hPa | 0 mm | 0 m/s | 42 W/m² | - |
* Rain latest hour (hover to see other rain measurements)
** Current wind speed in m/s (hover to see current wind gust speed)